Showing default

COSMOS 2586, 63289

Orbit data source: Space-Track

COSMOS 2586, 63289 is a payload satellite owned by VVKO VKS (CIS) in LEO that was launched on Sun, 16 Mar 2025 UTC via an ANGARA-1.2 launch vehicle from the Plesetsk Missile And Space Complex (PKMTR). Payload-class satellites include a variety of spacecraft equipped with specific instruments for various scientific and technological missions. These include communications satellites like Starlink; space stations such as the ISS; scientific satellites like the Hubble; Earth observation satellites from companies like Planet Labs, Umbra, and HawkEye 360; GPS; miniature CubeSats for education and research; and military/defense satellites.

Loading next visibility...
Identifier
63289, 2025-054B
Orbit
LEO
Last TLE update
3 hours ago
Origin
Manufacturer
Resehetnev ISS
Mission
Operational Defense Communications
Bus & Motor
STRELA-3M, Unknown motor
Mass
280 kg wet, 280 kg dry
Launch date (UTC)
2025-03-16 (2 months ago)
Launch vehicle
ANGARA-1.2
Launch site
Plesetsk Missile And Space Complex (PKMTR)
Object type
Payload
Rocket body
Debris
Shape & HBR
Cyl + 1 Ant, 7 m
Radar Cross Section
1.583 m², Large (>1 m²)

Expand to show TLE details & history

TLE from 3 hours ago
0 COSMOS 2586
1 63289U 25054B   25129.18250459  .00000051  00000-0  29539-3 0  9994
2 63289  82.4920 330.0380 0020499 182.9376 177.1586 12.42896369  6665
Epoch: 2025-05-09T04:22Z
Definitive object data (Epoch: 2025-05-09T04:22:48.396Z)
Latitude
-0.00008°
Longitude
37.09402°
Altitude
1,513.169 km
Speed
7.101 km/s
True Right ascension
22h 00m 09s
True Declination
0° 00' 00"
Sunlit
Object was in daylight at TLE epoch
Visualization TLE readout
Latitude
26.1051°
Longitude
-146.66202°
Altitude
1,483.228 km
Speed
7.13 km/s
Apparent Right ascension
07h 17m 22s
Apparent Declination
-4° 26' 35"
Sunlit
Object is in daylight
Visualization observer readout
Local Sidereal Time
15:17:09
Azimuth
286.746° WNW
Elevation
-25.559°
Doppler factor
1
Orbital elements
Apogee altitude
1,507.833 km
Perigee altitude
1,475.568 km
Semi-major axis
7,869.838 km
Eccentricity
0.0020499
Inclination
82.492°
RAAN
330.038°
Arg. of periapsis
182.9376°
True anomaly
177.17021°
Mean anomaly
177.1586°
Eccentric anomaly
177.16441°
Mean motion
3.10881 °/min
BSTAR
0.00029539
Orbital period
115.8 mins
Loading maneuver chart data...
Loading SW <> Apogee altitude chart data...
Loading historical data...
Loading historical data...
Loading historical data...
Loading historical data...
Loading historical data...
Loading historical data...
Loading historical data...
Other satellites on launch #54 in the year 2025 (2025-03-16 UTC)

COSMOS 2586 Visibility forecast

Observer location: undefined°, undefined°

Span
Click to sort rows by Start time (UTC) header in descending order
Start Az.
Max El. time (UTC)
Max El. Az.
Max El.
End time (UTC)
End Az.
9 mins2025-05-09 12:15:12.657Z111.414° ESE2025-05-09 12:20:12.657Z74.551° E16.745°2025-05-09 12:24:12.657Z45.256° ENE
15 mins2025-05-09 14:08:12.657Z185.979° SSW2025-05-09 14:15:12.657Z207.337° SW44.958°2025-05-09 14:23:12.657Z7.44° NNE
9 mins2025-05-09 16:09:12.657Z264.742° W2025-05-09 16:13:12.657Z295.087° NW17.437°2025-05-09 16:18:12.657Z332.882° NNW
15 mins2025-05-10 00:19:12.657Z7.247° NNE2025-05-10 00:26:12.657Z72.933° E34.968°2025-05-10 00:34:12.657Z144.344° SSE
14 mins2025-05-10 02:16:12.657Z334.222° NNW2025-05-10 02:23:12.657Z269.795° W32.079°2025-05-10 02:30:12.657Z211.105° SW
|